TimeCDT,TemperatureF,Dew PointF,Humidity,Sea Level PressureIn,VisibilityMPH,Wind Direction,Wind SpeedMPH,Gust SpeedMPH,PrecipitationIn,Events,Conditions,WindDirDegrees,DateUTC
12:53 AM,39.0,28.9,67,30.11,10.0,Calm,Calm,-,N/A,,Clear,0,2013-03-15 05:53:00
1:53 AM,35.1,28.0,76,30.10,10.0,East,3.5,-,N/A,,Clear,90,2013-03-15 06:53:00
2:53 AM,34.0,28.0,79,30.08,10.0,ESE,3.5,-,N/A,,Clear,120,2013-03-15 07:53:00
3:53 AM,30.2,28.4,93,30.05,10.0,Calm,Calm,-,N/A,,Clear,0,2013-03-15 08:53:00
4:53 AM,30.9,27.0,85,30.04,10.0,Calm,Calm,-,N/A,,Clear,0,2013-03-15 09:53:00
5:53 AM,30.9,28.0,89,30.04,10.0,Calm,Calm,-,N/A,,Clear,0,2013-03-15 10:53:00
6:53 AM,30.9,27.0,85,30.02,10.0,Calm,Calm,-,N/A,,Clear,0,2013-03-15 11:53:00
7:53 AM,32.0,30.0,92,30.03,7.0,Calm,Calm,-,N/A,,Clear,0,2013-03-15 12:53:00
8:53 AM,37.0,33.1,86,30.02,10.0,Calm,Calm,-,N/A,,Clear,0,2013-03-15 13:53:00
9:53 AM,46.9,39.0,74,30.01,10.0,Calm,Calm,-,N/A,,Clear,0,2013-03-15 14:53:00
10:53 AM,57.0,42.1,57,29.99,10.0,WSW,10.4,-,N/A,,Clear,250,2013-03-15 15:53:00
11:53 AM,61.0,43.0,52,29.96,10.0,Calm,Calm,-,N/A,,Clear,0,2013-03-15 16:53:00
12:53 PM,66.9,46.9,49,29.94,10.0,South,6.9,-,N/A,,Clear,190,2013-03-15 17:53:00
1:53 PM,70.0,46.9,44,29.91,10.0,South,6.9,-,N/A,,Clear,170,2013-03-15 18:53:00
2:53 PM,70.0,48.9,47,29.88,10.0,South,9.2,-,N/A,,Clear,170,2013-03-15 19:53:00
3:53 PM,70.0,51.1,51,29.85,10.0,SSW,8.1,-,N/A,,Clear,200,2013-03-15 20:53:00
4:53 PM,73.9,51.1,45,29.81,10.0,South,16.1,20.7,N/A,,Clear,190,2013-03-15 21:53:00
5:53 PM,71.1,51.1,49,29.79,10.0,SSW,15.0,24.2,N/A,,Clear,200,2013-03-15 22:53:00
6:53 PM,70.0,51.1,51,29.78,10.0,SSW,16.1,25.3,N/A,,Clear,210,2013-03-15 23:53:00
7:53 PM,68.0,52.0,56,29.77,10.0,SSW,15.0,24.2,N/A,,Clear,210,2013-03-16 00:53:00
8:53 PM,66.9,51.1,57,29.76,10.0,SSW,19.6,29.9,N/A,,Clear,210,2013-03-16 01:53:00
9:53 PM,64.9,50.0,58,29.77,10.0,SSW,16.1,-,N/A,,Clear,210,2013-03-16 02:53:00
10:53 PM,63.0,50.0,63,29.77,10.0,SSW,12.7,-,N/A,,Clear,200,2013-03-16 03:53:00
11:53 PM,62.1,50.0,65,29.77,10.0,SSW,11.5,-,N/A,,Clear,200,2013-03-16 04:53:00